Seattle Boeing, WA

7:14 AM PDT on July 28, 2017 (GMT -0700)
Boeing Field-King County International

Weather History for KBFI - October, 2014

Change the Weather History Date:

Sunday, October 26, 2014

  Actual Average Record
Temperature  
Mean Temperature 52 °F -  
Max Temperature 59 °F 56 °F 69 °F (1998)
Min Temperature 48 °F 44 °F 29 °F (1954)
Degree Days  
Heating Degree Days 12    
Growing Degree Days 2 (Base 50)    
Moisture  
Dew Point 44 °F    
Average Humidity 71    
Maximum Humidity 86    
Minimum Humidity 62    
Precipitation  
Precipitation 0.05 in - - ()
Sea Level Pressure  
Sea Level Pressure 29.98 in    
Wind  
Wind Speed 12 mph (South)    
Max Wind Speed 20 mph    
Max Gust Speed 30 mph    
Visibility 10 miles    
Events Rain    
Averages and records for this station are not official NWS values.
T = Trace of Precipitation, MM = Missing Value Source: NWS Daily Summary

Daily Weather History Graph

Daily Weather History Graph

Search for Another Location

Airport or City:

Trip Planner

Search our weather history database for the weather conditions in past years. The results will help you decide how hot, cold, wet, or windy it might be!

Date:

Astronomy

Oct. 26, 2014 Rise Set
Actual Time 7:44 AM PDT 6:01 PM PDT
Civil Twilight 7:12 AM PDT 6:33 PM PDT
Nautical Twilight 6:36 AM PDT 7:08 PM PDT
Astronomical Twilight 6:00 AM PDT 7:44 PM PDT
Moon 10:35 AM PDT (10/26) 8:09 PM PDT (10/26)
Length of Visible Light 11h 20m
Length of Day
10h 17m
Waxing Crescent, 9% of the Moon is Illuminated
Oct 26
Waxing Crescent
Oct 30
First Quarter
Nov 6
Full
Nov 14
Last Quarter
Nov 22
New

Hourly Weather History & Observations

Time (PDT) Temp. Dew Point Humidity Pressure Visibility Wind Dir Wind Speed Gust Speed Precip Events Conditions
12:53 AM 55.0 °F 45.0 °F 69% 29.76 in 10.0 mi SSW 19.6 mph 29.9 mph N/A   Clear
1:53 AM 55.0 °F 44.1 °F 67% 29.81 in 10.0 mi South 16.1 mph 27.6 mph N/A   Scattered Clouds
2:53 AM 55.0 °F 43.0 °F 64% 29.83 in 10.0 mi SSW 11.5 mph 23.0 mph N/A   Scattered Clouds
3:53 AM 54.0 °F 42.1 °F 64% 29.86 in 10.0 mi South 13.8 mph 20.7 mph N/A   Scattered Clouds
4:53 AM 53.1 °F 44.1 °F 71% 29.86 in 10.0 mi South 12.7 mph - N/A   Scattered Clouds
5:53 AM 52.0 °F 44.1 °F 74% 29.88 in 10.0 mi South 13.8 mph - N/A   Scattered Clouds
6:53 AM 52.0 °F 43.0 °F 71% 29.89 in 10.0 mi South 13.8 mph 20.7 mph N/A   Scattered Clouds
7:53 AM 52.0 °F 43.0 °F 71% 29.91 in 10.0 mi South 12.7 mph 24.2 mph N/A   Mostly Cloudy
8:53 AM - - N/A% 29.95 in - North - - N/A   Mostly Cloudy
9:53 AM 53.1 °F 43.0 °F 69% 29.95 in 10.0 mi South 13.8 mph 21.9 mph N/A   Unknown
10:53 AM 54.0 °F 44.1 °F 69% 29.96 in 10.0 mi South 19.6 mph 28.8 mph 0.00 in Rain Light Rain
11:53 AM 53.1 °F 46.0 °F 77% 29.96 in 10.0 mi SSE 12.7 mph 23.0 mph 0.05 in Rain Light Rain
12:53 PM 55.9 °F 46.0 °F 69% 29.97 in 10.0 mi SSW 16.1 mph 21.9 mph 0.00 in Rain Light Rain
1:37 PM 57.2 °F 46.4 °F 67% 29.97 in 10.0 mi SSW 8.1 mph 17.3 mph 0.00 in   Mostly Cloudy
1:53 PM 57.0 °F 46.9 °F 69% 29.98 in 10.0 mi Variable 6.9 mph - 0.00 in   Overcast
2:53 PM 55.4 °F 48.2 °F 77% 29.99 in 10.0 mi NW 4.6 mph - N/A   Overcast
3:53 PM 57.9 °F 45.0 °F 62% 30.03 in 10.0 mi Variable 4.6 mph - N/A   Mostly Cloudy
4:53 PM 57.0 °F 44.1 °F 62% 30.05 in 10.0 mi Variable 4.6 mph - N/A   Mostly Cloudy
5:53 PM 55.9 °F 44.1 °F 64% 30.07 in 10.0 mi Calm Calm - N/A   Overcast
6:53 PM 55.0 °F 44.1 °F 67% 30.09 in 10.0 mi Calm Calm - N/A   Overcast
7:53 PM 54.0 °F 45.0 °F 72% 30.10 in 10.0 mi East 3.5 mph - N/A   Mostly Cloudy
8:53 PM 51.1 °F 44.1 °F 77% 30.11 in 10.0 mi SE 3.5 mph - N/A   Scattered Clouds
9:53 PM 48.9 °F 43.0 °F 80% 30.12 in 10.0 mi Calm Calm - N/A   Partly Cloudy
10:53 PM 48.9 °F 44.1 °F 83% 30.13 in 10.0 mi SE 3.5 mph - N/A   Partly Cloudy
11:53 PM 48.9 °F 45.0 °F 86% 30.15 in 10.0 mi SSE 3.5 mph - N/A   Overcast